When you browse on this site, cookies collect data to enhance your experience and personalize the content and advertising you see.
Visit our Privacy Policy to learn more. By continuing to use the site, you agree to this use of cookies and data.
  • In Portugal
  • List of Countries
  • For 7 days
  • Water Temperature
  • Weather Map
  • Weather Widgets
  • user-avatar
    Login

    Hourly Weather Kurgan-Tyube

    Today, 7 June, Sunday

    Time Temperature Precipitation Wind Pressure Humidity
    00:00 +32°C° 0 mm 2 mps 726 mmHg 20%
    01:00 +31°C° 0 mm 1 mps 725 mmHg 22%
    02:00 +30°C° 0 mm 1 mps 725 mmHg 23%
    03:00 +29°C° 0 mm 1 mps 725 mmHg 24%
    04:00 +28°C° 0 mm 1 mps 725 mmHg 25%
    05:00 +28°C° 0 mm 1 mps 725 mmHg 27%
    06:00 +29°C° 0 mm 1 mps 726 mmHg 24%
    07:00 +31°C° 0 mm 1 mps 726 mmHg 21%
    08:00 +34°C° 0 mm 2 mps 727 mmHg 19%
    09:00 +35°C° 0 mm 2 mps 727 mmHg 16%
    10:00 +36°C° 0 mm 3 mps 727 mmHg 14%
    11:00 +38°C° 0 mm 3 mps 727 mmHg 12%
    12:00 +38°C° 0 mm 4 mps 726 mmHg 11%
    13:00 +40°C° 0 mm 4 mps 726 mmHg 9%
    14:00 +41°C° 0 mm 5 mps 726 mmHg 8%
    15:00 +41°C° 0 mm 4 mps 726 mmHg 8%
    16:00 +42°C° 0 mm 4 mps 726 mmHg 8%
    17:00 +42°C° 0 mm 4 mps 725 mmHg 8%
    18:00 +39°C° 0 mm 3 mps 725 mmHg 10%
    19:00 +37°C° 0 mm 3 mps 725 mmHg 11%
    20:00 +35°C° 0 mm 3 mps 725 mmHg 13%
    21:00 +34°C° 0 mm 3 mps 725 mmHg 14%
    22:00 +32°C° 0 mm 2 mps 725 mmHg 15%
    23:00 +31°C° 0 mm 2 mps 725 mmHg 16%

    Tomorrow, 8 June, Monday

    Time Temperature Precipitation Wind Pressure Humidity
    00:00 +31°C° 0 mm 2 mps 725 mmHg 17%
    01:00 +30°C° 0 mm 2 mps 725 mmHg 17%
    02:00 +29°C° 0 mm 2 mps 725 mmHg 18%
    03:00 +28°C° 0 mm 2 mps 725 mmHg 20%
    04:00 +27°C° 0 mm 2 mps 726 mmHg 22%
    05:00 +26°C° 0 mm 2 mps 726 mmHg 24%
    06:00 +27°C° 0 mm 3 mps 726 mmHg 24%
    07:00 +28°C° 0 mm 3 mps 727 mmHg 24%
    08:00 +30°C° 0 mm 4 mps 727 mmHg 24%
    09:00 +30°C° 0 mm 4 mps 727 mmHg 23%
    10:00 +32°C° 0 mm 4 mps 728 mmHg 22%
    11:00 +33°C° 0 mm 4 mps 728 mmHg 22%
    12:00 +34°C° 0 mm 4 mps 728 mmHg 21%
    13:00 +35°C° 0 mm 4 mps 728 mmHg 19%
    14:00 +36°C° 0 mm 4 mps 728 mmHg 18%
    15:00 +37°C° 0 mm 4 mps 728 mmHg 17%
    16:00 +37°C° 0 mm 5 mps 728 mmHg 17%
    17:00 +37°C° 0 mm 5 mps 728 mmHg 16%
    18:00 +36°C° 0 mm 5 mps 728 mmHg 18%
    19:00 +34°C° 0 mm 4 mps 728 mmHg 20%
    20:00 +33°C° 0 mm 4 mps 728 mmHg 21%
    21:00 +31°C° 0 mm 3 mps 728 mmHg 22%
    22:00 +30°C° 0 mm 3 mps 728 mmHg 23%
    23:00 +29°C° 0 mm 2 mps 728 mmHg 24%

    Day after tomorrow, 9 June, Tuesday

    Time Temperature Precipitation Wind Pressure Humidity
    00:00 +29°C° 0 mm 2 mps 728 mmHg 26%
    01:00 +28°C° 0 mm 2 mps 728 mmHg 28%
    02:00 +27°C° 0 mm 1 mps 728 mmHg 30%
    03:00 +27°C° 0 mm 1 mps 728 mmHg 31%
    04:00 +26°C° 0 mm 1 mps 728 mmHg 33%
    05:00 +26°C° 0 mm 1 mps 728 mmHg 34%
    06:00 +27°C° 0 mm 1 mps 729 mmHg 33%
    07:00 +28°C° 0 mm 1 mps 729 mmHg 32%
    08:00 +29°C° 0 mm 1 mps 729 mmHg 31%
    09:00 +31°C° 0 mm 1 mps 730 mmHg 27%
    10:00 +32°C° 0 mm 2 mps 730 mmHg 23%
    11:00 +34°C° 0 mm 2 mps 730 mmHg 20%
    12:00 +36°C° 0 mm 2 mps 730 mmHg 18%
    13:00 +37°C° 0 mm 3 mps 729 mmHg 16%
    14:00 +38°C° 0 mm 3 mps 729 mmHg 14%
    15:00 +38°C° 0 mm 3 mps 729 mmHg 13%
    16:00 +38°C° 0 mm 3 mps 729 mmHg 12%
    17:00 +38°C° 0 mm 3 mps 728 mmHg 12%
    18:00 +37°C° 0 mm 3 mps 728 mmHg 13%
    19:00 +35°C° 0 mm 3 mps 728 mmHg 14%
    20:00 +33°C° 0 mm 3 mps 728 mmHg 15%
    21:00 +31°C° 0 mm 2 mps 728 mmHg 15%
    22:00 +30°C° 0 mm 2 mps 728 mmHg 15%
    23:00 +29°C° 0 mm 1 mps 728 mmHg 15%

    10 June, Wednesday

    Time Temperature Precipitation Wind Pressure Humidity
    00:00 +29°C° 0 mm 1 mps 728 mmHg 16%
    01:00 +28°C° 0 mm 1 mps 728 mmHg 18%
    02:00 +27°C° 0 mm 1 mps 728 mmHg 19%
    03:00 +26°C° 0 mm 1 mps 728 mmHg 21%
    04:00 +26°C° 0 mm 1 mps 728 mmHg 23%
    05:00 +25°C° 0 mm 1 mps 728 mmHg 24%
    06:00 +26°C° 0 mm 1 mps 728 mmHg 22%
    07:00 +28°C° 0 mm 2 mps 728 mmHg 21%
    08:00 +30°C° 0 mm 2 mps 729 mmHg 19%
    09:00 +31°C° 0 mm 3 mps 729 mmHg 17%
    10:00 +34°C° 0 mm 4 mps 729 mmHg 15%
    11:00 +35°C° 0 mm 5 mps 729 mmHg 13%
    12:00 +36°C° 0 mm 5 mps 729 mmHg 12%
    13:00 +37°C° 0 mm 5 mps 729 mmHg 11%
    14:00 +39°C° 0 mm 6 mps 729 mmHg 10%
    15:00 +37°C° 0 mm 5 mps 728 mmHg 10%
    16:00 +37°C° 0 mm 5 mps 728 mmHg 9%
    17:00 +37°C° 0 mm 5 mps 728 mmHg 9%
    18:00 +36°C° 0 mm 4 mps 728 mmHg 11%
    19:00 +34°C° 0 mm 4 mps 728 mmHg 12%
    20:00 +31°C° 0 mm 3 mps 728 mmHg 14%
    21:00 +30°C° 0 mm 3 mps 728 mmHg 15%
    22:00 +29°C° 0 mm 3 mps 729 mmHg 15%
    23:00 +28°C° 0 mm 2 mps 729 mmHg 16%

    11 June, Thursday

    Time Temperature Precipitation Wind Pressure Humidity
    00:00 +27°C° 0 mm 2 mps 728 mmHg 18%
    01:00 +26°C° 0 mm 1 mps 728 mmHg 21%
    02:00 +25°C° 0 mm 1 mps 728 mmHg 24%
    03:00 +25°C° 0 mm 1 mps 728 mmHg 25%
    04:00 +24°C° 0 mm 1 mps 727 mmHg 26%
    05:00 +23°C° 0 mm 1 mps 727 mmHg 27%
    06:00 +25°C° 0 mm 1 mps 728 mmHg 24%
    07:00 +27°C° 0 mm 1 mps 728 mmHg 22%
    08:00 +29°C° 0 mm 1 mps 728 mmHg 19%
    09:00 +30°C° 0 mm 1 mps 728 mmHg 18%
    10:00 +32°C° 0 mm 2 mps 728 mmHg 17%
    11:00 +34°C° 0 mm 2 mps 728 mmHg 16%
    12:00 +35°C° 0 mm 2 mps 728 mmHg 15%
    13:00 +36°C° 0 mm 2 mps 728 mmHg 14%
    14:00 +36°C° 0 mm 1 mps 727 mmHg 13%
    15:00 +36°C° 0 mm 1 mps 727 mmHg 12%
    16:00 +37°C° 0 mm 2 mps 727 mmHg 12%
    17:00 +37°C° 0 mm 2 mps 726 mmHg 12%
    18:00 +35°C° 0 mm 2 mps 726 mmHg 14%
    19:00 +33°C° 0 mm 1 mps 726 mmHg 16%
    20:00 +31°C° 0 mm 1 mps 726 mmHg 18%
    21:00 +30°C° 0 mm 1 mps 726 mmHg 19%
    22:00 +29°C° 0 mm 1 mps 726 mmHg 20%
    23:00 +27°C° 0 mm 0 mps 726 mmHg 22%

    12 June, Friday

    Time Temperature Precipitation Wind Pressure Humidity
    00:00 +28°C° 0 mm 1 mps 726 mmHg 23%
    01:00 +27°C° 0 mm 1 mps 725 mmHg 24%
    02:00 +26°C° 0 mm 1 mps 725 mmHg 24%
    03:00 +26°C° 0 mm 1 mps 725 mmHg 25%
    04:00 +25°C° 0 mm 1 mps 725 mmHg 26%
    05:00 +25°C° 0 mm 1 mps 724 mmHg 27%
    06:00 +26°C° 0 mm 1 mps 725 mmHg 25%
    07:00 +28°C° 0 mm 1 mps 725 mmHg 22%
    08:00 +30°C° 0 mm 1 mps 725 mmHg 20%
    09:00 +32°C° 0 mm 1 mps 725 mmHg 18%
    10:00 +34°C° 0 mm 2 mps 726 mmHg 16%
    11:00 +36°C° 0 mm 2 mps 726 mmHg 14%
    12:00 +37°C° 0 mm 2 mps 725 mmHg 13%
    13:00 +38°C° 0 mm 3 mps 725 mmHg 12%
    14:00 +39°C° 0 mm 3 mps 725 mmHg 10%
    15:00 +39°C° 0 mm 3 mps 725 mmHg 10%
    16:00 +40°C° 0 mm 4 mps 724 mmHg 10%
    17:00 +40°C° 0 mm 4 mps 724 mmHg 9%
    18:00 +37°C° 0 mm 4 mps 724 mmHg 11%
    19:00 +36°C° 0 mm 4 mps 724 mmHg 12%
    20:00 +34°C° 0 mm 5 mps 724 mmHg 14%
    21:00 +33°C° 0 mm 4 mps 724 mmHg 14%
    22:00 +30°C° 0 mm 3 mps 725 mmHg 15%
    23:00 +29°C° 0 mm 2 mps 725 mmHg 15%
    Show more